Location: ????????
(55.7667°N, 37.4833°E)
Time: 02:55:13
(UTC+00:00)

Cosmos 2219 Rocket - Pass Details

Date: 19 May 2025
Orbit: 828 x 844 km, 71.0° (Epoch: 15 June)

Event Time Altitude Azimuth Distance (km) Brightness Sun altitude
Rises 20:37:08 0° 324° (NW) 3,404 6.7 -13.5°
Reaches altitude 10° 20:39:40 10° 329° (NNW) 2,463 5.8 -13.6°
Maximum altitude 20:45:13 55° 48° (NE) 1,001 2.8 -13.8°
Drops below altitude 10° 20:50:42 10° 126° (SE) 2,440 4.2 -13.9°
Enters shadow 20:50:56 - 126° (SE) 2,524 4.3 -13.9°
